Location: Chomutov
(50.4500°N, 13.4333°E)
Time: 01:30:01
(UTC+02:00)

FO-29 - Pass Details

Date: 30 September 2021
Orbit: 800 x 1321 km, 98.6° (Epoch: 27 October)

Event Time Altitude Azimuth Distance (km) Brightness Sun altitude
Exits shadow 21:50:47 42° 182° (S) 1,804 10.6 -28.8°
Maximum altitude 21:53:50 75° 257° (WSW) 1,368 10.2 -29.2°
Drops below altitude 10° 22:01:43 10° 343° (NNW) 3,337 12.9 -30.2°
Sets 22:04:26 0° 345° (NNW) 4,282 13.6 -30.5°
